Location: Auttagershofen
(48.1940°N, 10.0237°E)
Time: 07:50:55
(UTC+00:00)

Cosmos 2278 Rocket - Pass Details

Date: 18 January 2026
Orbit: 839 x 846 km, 71.0° (Epoch: 15 February)

Event Time Altitude Azimuth Distance (km) Brightness Sun altitude
Exits shadow 05:56:19 - 243° (WSW) 3,110 4.7 -11.0°
Reaches altitude 10° 05:58:17 10° 252° (WSW) 2,456 4.1 -10.7°
Maximum altitude 06:03:10 30° 312° (NW) 1,482 3.0 -9.9°
Drops below altitude 10° 06:08:06 10° 13° (NNE) 2,472 4.6 -9.1°
Sets 06:10:53 0° 24° (NNE) 3,411 5.4 -8.7°
